Location: Newark
(27.9675°N, 86.8869°E)
Time: 17:15:01
(UTC+00:00)

deb Explorer IX - Pass Details

Date: 30 October 2019
Orbit: 546 x 1105 km, 38.8° (Epoch: 20 November)

Event Time Altitude Azimuth Distance (km) Brightness Sun altitude
Rises 00:53:08 0° 205° (SSW) 2,762 ? 5.8°
Reaches altitude 10° 00:55:58 10° 186° (S) 1,823 ? 6.4°
Maximum altitude 00:58:52 18° 141° (SE) 1,348 ? 7.0°
Drops below altitude 10° 01:01:43 10° 96° (E) 1,804 ? 7.6°
Sets 01:04:30 0° 77° (ENE) 2,721 ? 8.1°
